Time,TemperatureF,DewpointF,PressureIn,WindDirection,WindDirectionDegrees,WindSpeedMPH,WindSpeedGustMPH,Humidity,HourlyPrecipIn,Conditions,Clouds,dailyrainin,SoftwareType,DateUTC
2013-03-06 00:02:00,24.0,21.0,-100.00,WSW,245,13.0,18.0,88,0.00,,,-99.99,,2013-03-06 06:02:00,
2013-03-06 00:11:00,24.0,21.0,-100.00,WSW,255,12.0,17.0,88,0.00,,,-99.99,,2013-03-06 06:11:00,
2013-03-06 00:22:00,24.0,21.0,-100.00,WSW,255,11.0,15.0,89,0.00,,,-99.99,,2013-03-06 06:22:00,
2013-03-06 00:32:00,23.0,21.0,-100.00,WSW,250,8.0,16.0,90,0.00,,,-99.99,,2013-03-06 06:32:00,
2013-03-06 00:42:00,23.0,21.0,-100.00,WSW,250,8.0,16.0,90,0.00,,,-99.99,,2013-03-06 06:42:00,
2013-03-06 00:52:00,23.0,21.0,-100.00,NNW,335,7.0,16.0,90,0.00,,,-99.99,,2013-03-06 06:52:00,
2013-03-06 01:01:00,23.0,21.0,-100.00,NNW,335,7.0,16.0,90,0.00,,,-99.99,,2013-03-06 07:01:00,
2013-03-06 01:11:00,23.0,21.0,-100.00,WSW,250,9.0,17.0,90,0.00,,,-99.99,,2013-03-06 07:11:00,
2013-03-06 01:22:00,23.0,21.0,-100.00,WSW,250,10.0,15.0,90,0.00,,,-99.99,,2013-03-06 07:22:00,
2013-03-06 01:32:00,22.0,20.0,-100.00,WSW,255,13.0,17.0,90,0.00,,,-99.99,,2013-03-06 07:32:00,
2013-03-06 01:42:00,22.0,20.0,-100.00,WSW,255,13.0,17.0,90,0.00,,,-99.99,,2013-03-06 07:42:00,
2013-03-06 01:52:00,20.0,18.0,-100.00,West,270,9.0,13.0,91,0.00,,,-99.99,,2013-03-06 07:52:00,
2013-03-06 02:01:00,20.0,18.0,-100.00,West,270,9.0,13.0,91,0.00,,,-99.99,,2013-03-06 08:01:00,
2013-03-06 02:11:00,20.0,18.0,-100.00,West,265,9.0,12.0,91,0.00,,,-99.99,,2013-03-06 08:11:00,
2013-03-06 02:21:00,20.0,18.0,-100.00,West,270,9.0,12.0,91,0.00,,,-99.99,,2013-03-06 08:21:00,
2013-03-06 02:32:00,21.0,19.0,-100.00,WSW,240,13.0,19.0,91,0.00,,,-99.99,,2013-03-06 08:32:00,
2013-03-06 02:42:00,21.0,19.0,-100.00,WSW,240,13.0,19.0,91,0.00,,,-99.99,,2013-03-06 08:42:00,
2013-03-06 02:52:00,19.0,17.0,-100.00,WSW,245,14.0,18.0,91,0.00,,,-99.99,,2013-03-06 08:52:00,
2013-03-06 03:01:00,19.0,17.0,-100.00,WSW,245,14.0,18.0,91,0.00,,,-99.99,,2013-03-06 09:01:00,
2013-03-06 03:12:00,17.0,15.0,-100.00,WSW,240,14.0,18.0,91,0.00,,,-99.99,,2013-03-06 09:12:00,
2013-03-06 03:21:00,16.0,14.0,-100.00,West,275,12.0,16.0,91,0.00,,,-99.99,,2013-03-06 09:21:00,
2013-03-06 03:31:00,15.0,14.0,-100.00,WSW,255,7.0,11.0,92,0.00,,,-99.99,,2013-03-06 09:31:00,
2013-03-06 03:42:00,15.0,14.0,-100.00,WSW,255,7.0,11.0,92,0.00,,,-99.99,,2013-03-06 09:42:00,
2013-03-06 03:51:00,17.0,16.0,-100.00,WSW,245,7.0,14.0,92,0.00,,,-99.99,,2013-03-06 09:51:00,
2013-03-06 04:01:00,17.0,16.0,-100.00,WSW,245,7.0,14.0,92,0.00,,,-99.99,,2013-03-06 10:01:00,
2013-03-06 04:11:00,18.0,16.0,-100.00,NNW,335,4.0,11.0,91,0.00,,,-99.99,,2013-03-06 10:11:00,
2013-03-06 04:21:00,19.0,17.0,-100.00,WSW,255,9.0,12.0,91,0.00,,,-99.99,,2013-03-06 10:21:00,
2013-03-06 04:32:00,19.0,17.0,-100.00,WSW,240,11.0,14.0,90,0.00,,,-99.99,,2013-03-06 10:32:00,
2013-03-06 04:42:00,19.0,17.0,-100.00,WSW,240,11.0,14.0,90,0.00,,,-99.99,,2013-03-06 10:42:00,
2013-03-06 04:51:00,19.0,17.0,-100.00,WSW,255,10.0,14.0,90,0.00,,,-99.99,,2013-03-06 10:51:00,
2013-03-06 05:02:00,19.0,17.0,-100.00,WSW,255,10.0,14.0,90,0.00,,,-99.99,,2013-03-06 11:02:00,
2013-03-06 05:11:00,19.0,17.0,-100.00,NW,310,10.0,12.0,90,0.00,,,-99.99,,2013-03-06 11:11:00,
2013-03-06 05:22:00,19.0,17.0,-100.00,West,270,11.0,12.0,90,0.00,,,-99.99,,2013-03-06 11:22:00,
2013-03-06 05:32:00,19.0,17.0,-100.00,NW,305,8.0,12.0,91,0.00,,,-99.99,,2013-03-06 11:32:00,
2013-03-06 05:42:00,19.0,17.0,-100.00,NW,305,8.0,12.0,91,0.00,,,-99.99,,2013-03-06 11:42:00,
2013-03-06 05:52:00,20.0,18.0,-100.00,WSW,255,10.0,12.0,91,0.00,,,-99.99,,2013-03-06 11:52:00,
2013-03-06 06:02:00,20.0,18.0,-100.00,WSW,255,10.0,12.0,91,0.00,,,-99.99,,2013-03-06 12:02:00,
2013-03-06 06:11:00,19.0,18.0,-100.00,SW,235,11.0,13.0,92,0.00,,,-99.99,,2013-03-06 12:11:00,
2013-03-06 06:21:00,19.0,18.0,-100.00,WSW,245,11.0,13.0,92,0.00,,,-99.99,,2013-03-06 12:21:00,
2013-03-06 06:32:00,19.0,17.0,-100.00,WSW,255,9.0,14.0,92,0.00,,,-99.99,,2013-03-06 12:32:00,
2013-03-06 06:42:00,19.0,17.0,-100.00,WSW,255,9.0,14.0,92,0.00,,,-99.99,,2013-03-06 12:42:00,
2013-03-06 06:52:00,19.0,18.0,-100.00,WNW,295,11.0,12.0,92,0.00,,,-99.99,,2013-03-06 12:52:00,
2013-03-06 07:02:00,19.0,18.0,-100.00,WNW,295,11.0,12.0,92,0.00,,,-99.99,,2013-03-06 13:02:00,
2013-03-06 07:11:00,19.0,17.0,-100.00,WNW,295,9.0,12.0,92,0.00,,,-99.99,,2013-03-06 13:11:00,
2013-03-06 07:22:00,19.0,17.0,-100.00,WSW,240,10.0,12.0,91,0.00,,,-99.99,,2013-03-06 13:22:00,
2013-03-06 07:32:00,19.0,17.0,-100.00,West,260,11.0,14.0,91,0.00,,,-99.99,,2013-03-06 13:32:00,
2013-03-06 07:42:00,19.0,17.0,-100.00,West,260,11.0,14.0,91,0.00,,,-99.99,,2013-03-06 13:42:00,
2013-03-06 07:52:00,19.0,17.0,-100.00,SW,235,10.0,12.0,91,0.00,,,-99.99,,2013-03-06 13:52:00,
2013-03-06 08:01:00,19.0,17.0,-100.00,SW,235,10.0,12.0,91,0.00,,,-99.99,,2013-03-06 14:01:00,
2013-03-06 08:11:00,19.0,17.0,-100.00,West,265,9.0,12.0,91,0.00,,,-99.99,,2013-03-06 14:11:00,
2013-03-06 08:21:00,19.0,17.0,-100.00,WSW,255,9.0,12.0,91,0.00,,,-99.99,,2013-03-06 14:21:00,
2013-03-06 08:32:00,20.0,17.0,-100.00,WSW,250,10.0,13.0,90,0.00,,,-99.99,,2013-03-06 14:32:00,
2013-03-06 08:42:00,20.0,17.0,-100.00,WSW,250,10.0,13.0,90,0.00,,,-99.99,,2013-03-06 14:42:00,
2013-03-06 08:52:00,20.0,18.0,-100.00,WNW,290,11.0,14.0,89,0.00,,,-99.99,,2013-03-06 14:52:00,
2013-03-06 09:02:00,20.0,18.0,-100.00,WNW,290,11.0,14.0,89,0.00,,,-99.99,,2013-03-06 15:02:00,
2013-03-06 09:11:00,21.0,18.0,-100.00,West,265,9.0,12.0,88,0.00,,,-99.99,,2013-03-06 15:11:00,
2013-03-06 09:21:00,21.0,18.0,-100.00,WSW,245,8.0,12.0,87,0.00,,,-99.99,,2013-03-06 15:21:00,
2013-03-06 09:32:00,22.0,18.0,-100.00,NNW,340,6.0,11.0,83,0.00,,,-99.99,,2013-03-06 15:32:00,
2013-03-06 09:42:00,22.0,18.0,-100.00,NNW,340,6.0,11.0,83,0.00,,,-99.99,,2013-03-06 15:42:00,
2013-03-06 09:52:00,24.0,18.0,-100.00,North,5,6.0,11.0,79,0.00,,,-99.99,,2013-03-06 15:52:00,
2013-03-06 10:01:00,24.0,18.0,-100.00,North,5,6.0,11.0,79,0.00,,,-99.99,,2013-03-06 16:01:00,
2013-03-06 10:11:00,24.0,18.0,-100.00,North,350,6.0,12.0,77,0.00,,,-99.99,,2013-03-06 16:11:00,
2013-03-06 10:21:00,24.0,18.0,-100.00,North,5,5.0,13.0,77,0.00,,,-99.99,,2013-03-06 16:21:00,
2013-03-06 10:32:00,23.0,17.0,-100.00,NNE,20,9.0,11.0,76,0.00,,,-99.99,,2013-03-06 16:32:00,
2013-03-06 10:42:00,23.0,17.0,-100.00,NNE,20,9.0,11.0,76,0.00,,,-99.99,,2013-03-06 16:42:00,
2013-03-06 10:52:00,25.0,18.0,-100.00,WSW,250,6.0,12.0,74,0.00,,,-99.99,,2013-03-06 16:52:00,
2013-03-06 11:01:00,25.0,18.0,-100.00,WSW,250,6.0,12.0,74,0.00,,,-99.99,,2013-03-06 17:01:00,
2013-03-06 11:11:00,25.0,18.0,-100.00,WSW,255,7.0,11.0,73,0.00,,,-99.99,,2013-03-06 17:11:00,
2013-03-06 11:21:00,25.0,17.0,-100.00,WNW,285,9.0,12.0,72,0.00,,,-99.99,,2013-03-06 17:21:00,
2013-03-06 11:32:00,25.0,17.0,-100.00,WSW,255,6.0,11.0,71,0.00,,,-99.99,,2013-03-06 17:32:00,
2013-03-06 11:41:00,25.0,17.0,-100.00,WSW,255,6.0,11.0,71,0.00,,,-99.99,,2013-03-06 17:41:00,
2013-03-06 11:52:00,26.0,17.0,-100.00,West,265,7.0,13.0,69,0.00,,,-99.99,,2013-03-06 17:52:00,
2013-03-06 12:02:00,26.0,17.0,-100.00,West,265,7.0,13.0,69,0.00,,,-99.99,,2013-03-06 18:02:00,
2013-03-06 12:28:00,26.0,17.0,-100.00,North,0,6.0,11.0,68,0.00,,,-99.99,,2013-03-06 18:28:00,
2013-03-06 12:42:00,27.0,17.0,-100.00,West,265,6.0,11.0,66,0.00,,,-99.99,,2013-03-06 18:42:00,
2013-03-06 12:52:00,27.0,17.0,-100.00,NNW,345,4.0,10.0,65,0.00,,,-99.99,,2013-03-06 18:52:00,
2013-03-06 13:02:00,27.0,17.0,-100.00,NNW,345,4.0,10.0,65,0.00,,,-99.99,,2013-03-06 19:02:00,
2013-03-06 13:11:00,25.0,16.0,-100.00,NNE,25,7.0,11.0,68,0.00,,,-99.99,,2013-03-06 19:11:00,
2013-03-06 13:21:00,26.0,17.0,-100.00,North,5,5.0,11.0,68,0.00,,,-99.99,,2013-03-06 19:21:00,
2013-03-06 13:32:00,29.0,18.0,-100.00,NNW,340,4.0,8.0,61,0.00,,,-99.99,,2013-03-06 19:32:00,
2013-03-06 13:43:00,29.0,18.0,-100.00,NNW,340,4.0,8.0,61,0.00,,,-99.99,,2013-03-06 19:43:00,
2013-03-06 13:52:00,26.0,16.0,-100.00,North,10,6.0,12.0,65,0.00,,,-99.99,,2013-03-06 19:52:00,
2013-03-06 14:01:00,26.0,16.0,-100.00,North,10,6.0,12.0,65,0.00,,,-99.99,,2013-03-06 20:01:00,
2013-03-06 14:11:00,28.0,18.0,-100.00,NNW,335,3.0,7.0,65,0.00,,,-99.99,,2013-03-06 20:11:00,
2013-03-06 14:22:00,29.0,18.0,-100.00,WNW,285,6.0,9.0,63,0.00,,,-99.99,,2013-03-06 20:22:00,
2013-03-06 14:32:00,28.0,17.0,-100.00,NW,310,7.0,9.0,61,0.00,,,-99.99,,2013-03-06 20:32:00,
2013-03-06 14:42:00,28.0,17.0,-100.00,NW,310,7.0,9.0,61,0.00,,,-99.99,,2013-03-06 20:42:00,
2013-03-06 14:52:00,29.0,17.0,-100.00,WNW,285,6.0,8.0,60,0.00,,,-99.99,,2013-03-06 20:52:00,
2013-03-06 15:02:00,29.0,17.0,-100.00,WNW,285,6.0,8.0,60,0.00,,,-99.99,,2013-03-06 21:02:00,
2013-03-06 15:12:00,28.0,17.0,-100.00,WNW,295,7.0,11.0,61,0.00,,,-99.99,,2013-03-06 21:12:00,
2013-03-06 15:22:00,27.0,16.0,-100.00,West,260,7.0,11.0,62,0.00,,,-99.99,,2013-03-06 21:22:00,
2013-03-06 15:32:00,26.0,16.0,-100.00,WSW,240,9.0,11.0,65,0.00,,,-99.99,,2013-03-06 21:32:00,
2013-03-06 15:42:00,26.0,16.0,-100.00,WSW,240,9.0,11.0,65,0.00,,,-99.99,,2013-03-06 21:42:00,
2013-03-06 15:51:00,26.0,17.0,-100.00,WNW,285,7.0,9.0,66,0.00,,,-99.99,,2013-03-06 21:51:00,
2013-03-06 16:01:00,26.0,17.0,-100.00,WNW,285,7.0,9.0,66,0.00,,,-99.99,,2013-03-06 22:01:00,
2013-03-06 16:11:00,26.0,16.0,-100.00,WNW,290,6.0,10.0,66,0.00,,,-99.99,,2013-03-06 22:11:00,
2013-03-06 16:21:00,25.0,16.0,-100.00,SW,220,7.0,9.0,67,0.00,,,-99.99,,2013-03-06 22:21:00,
2013-03-06 16:32:00,25.0,16.0,-100.00,WSW,245,9.0,11.0,68,0.00,,,-99.99,,2013-03-06 22:32:00,
2013-03-06 16:41:00,25.0,16.0,-100.00,WSW,245,9.0,11.0,68,0.00,,,-99.99,,2013-03-06 22:41:00,
2013-03-06 16:51:00,24.0,16.0,-100.00,SW,235,6.0,9.0,70,0.00,,,-99.99,,2013-03-06 22:51:00,
2013-03-06 17:01:00,24.0,16.0,-100.00,SW,235,6.0,9.0,70,0.00,,,-99.99,,2013-03-06 23:01:00,
2013-03-06 17:11:00,24.0,16.0,-100.00,WSW,245,6.0,9.0,71,0.00,,,-99.99,,2013-03-06 23:11:00,
2013-03-06 17:21:00,23.0,16.0,-100.00,West,275,7.0,11.0,73,0.00,,,-99.99,,2013-03-06 23:21:00,
2013-03-06 17:32:00,22.0,15.0,-100.00,NNW,340,4.0,9.0,75,0.00,,,-99.99,,2013-03-06 23:32:00,
2013-03-06 17:42:00,22.0,15.0,-100.00,NNW,340,4.0,9.0,75,0.00,,,-99.99,,2013-03-06 23:42:00,
2013-03-06 17:52:00,19.0,13.0,-100.00,NW,305,6.0,8.0,76,0.00,,,-99.99,,2013-03-06 23:52:00,
2013-03-06 18:01:00,19.0,13.0,-100.00,NW,305,6.0,8.0,76,0.00,,,-99.99,,2013-03-07 00:01:00,
2013-03-06 18:11:00,19.0,13.0,-100.00,NW,320,6.0,7.0,78,0.00,,,-99.99,,2013-03-07 00:11:00,
2013-03-06 18:21:00,19.0,14.0,-100.00,West,270,4.0,7.0,79,0.00,,,-99.99,,2013-03-07 00:21:00,
2013-03-06 18:32:00,16.0,11.0,-100.00,NW,315,4.0,6.0,80,0.00,,,-99.99,,2013-03-07 00:32:00,
2013-03-06 18:41:00,16.0,11.0,-100.00,NW,315,4.0,6.0,80,0.00,,,-99.99,,2013-03-07 00:41:00,
2013-03-06 18:51:00,14.0,10.0,-100.00,WNW,285,5.0,6.0,83,0.00,,,-99.99,,2013-03-07 00:51:00,
2013-03-06 19:01:00,14.0,10.0,-100.00,WNW,285,5.0,6.0,83,0.00,,,-99.99,,2013-03-07 01:01:00,
2013-03-06 19:11:00,15.0,11.0,-100.00,WNW,295,4.0,6.0,84,0.00,,,-99.99,,2013-03-07 01:11:00,
2013-03-06 19:21:00,14.0,11.0,-100.00,WNW,295,6.0,6.0,85,0.00,,,-99.99,,2013-03-07 01:21:00,
2013-03-06 19:31:00,14.0,11.0,-100.00,NNW,330,3.0,6.0,86,0.00,,,-99.99,,2013-03-07 01:31:00,
2013-03-06 19:41:00,14.0,11.0,-100.00,NNW,330,3.0,6.0,86,0.00,,,-99.99,,2013-03-07 01:41:00,
2013-03-06 19:51:00,13.0,11.0,-100.00,North,0,2.0,4.0,87,0.00,,,-99.99,,2013-03-07 01:51:00,
2013-03-06 20:01:00,13.0,11.0,-100.00,North,0,2.0,4.0,87,0.00,,,-99.99,,2013-03-07 02:01:00,
2013-03-06 20:11:00,13.0,10.0,-100.00,WNW,295,2.0,4.0,88,0.00,,,-99.99,,2013-03-07 02:11:00,
2013-03-06 20:21:00,10.0,8.0,-100.00,NW,320,1.0,3.0,88,0.00,,,-99.99,,2013-03-07 02:21:00,
2013-03-06 20:32:00,9.0,6.0,-100.00,NNW,340,0.0,1.0,90,0.00,,,-99.99,,2013-03-07 02:32:00,
2013-03-06 20:41:00,9.0,6.0,-100.00,NNW,340,0.0,1.0,90,0.00,,,-99.99,,2013-03-07 02:41:00,
2013-03-06 20:51:00,9.0,6.0,-100.00,NNW,340,0.0,1.0,90,0.00,,,-99.99,,2013-03-07 02:51:00,
2013-03-06 21:02:00,8.0,6.0,-100.00,East,100,0.0,0.0,90,0.00,,,-99.99,,2013-03-07 03:02:00,
2013-03-06 21:11:00,7.0,4.0,-100.00,NE,45,1.0,1.0,90,0.00,,,-99.99,,2013-03-07 03:11:00,
2013-03-06 21:21:00,6.0,4.0,-100.00,North,350,1.0,2.0,90,0.00,,,-99.99,,2013-03-07 03:21:00,
2013-03-06 21:32:00,4.0,2.0,-100.00,North,5,1.0,1.0,90,0.00,,,-99.99,,2013-03-07 03:32:00,
2013-03-06 21:41:00,4.0,2.0,-100.00,North,5,1.0,1.0,90,0.00,,,-99.99,,2013-03-07 03:41:00,
2013-03-06 21:52:00,3.0,1.0,-100.00,NNE,20,0.0,2.0,90,0.00,,,-99.99,,2013-03-07 03:52:00,
2013-03-06 22:01:00,3.0,1.0,-100.00,NNE,20,0.0,2.0,90,0.00,,,-99.99,,2013-03-07 04:01:00,
2013-03-06 22:11:00,2.0,0.0,-100.00,WNW,290,0.0,1.0,90,0.00,,,-99.99,,2013-03-07 04:11:00,
2013-03-06 22:21:00,1.0,-1.0,-100.00,NW,310,0.0,1.0,90,0.00,,,-99.99,,2013-03-07 04:21:00,
2013-03-06 22:32:00,1.0,-1.0,-100.00,NE,35,0.0,1.0,90,0.00,,,-99.99,,2013-03-07 04:32:00,
2013-03-06 22:42:00,1.0,-1.0,-100.00,NE,35,0.0,1.0,90,0.00,,,-99.99,,2013-03-07 04:42:00,
2013-03-06 22:51:00,-1.0,-3.0,-100.00,North,355,0.0,1.0,90,0.00,,,-99.99,,2013-03-07 04:51:00,
2013-03-06 23:02:00,-1.0,-3.0,-100.00,North,355,0.0,1.0,90,0.00,,,-99.99,,2013-03-07 05:02:00,
2013-03-06 23:12:00,-1.0,-3.0,-100.00,WNW,285,1.0,1.0,90,0.00,,,-99.99,,2013-03-07 05:12:00,
2013-03-06 23:22:00,-1.0,-3.0,-100.00,WNW,285,0.0,1.0,90,0.00,,,-99.99,,2013-03-07 05:22:00,
2013-03-06 23:32:00,-1.0,-3.0,-100.00,NNE,20,0.0,1.0,90,0.00,,,-99.99,,2013-03-07 05:32:00,
2013-03-06 23:42:00,-1.0,-3.0,-100.00,NNE,20,0.0,1.0,90,0.00,,,-99.99,,2013-03-07 05:42:00,
2013-03-06 23:52:00,-2.0,-4.0,-100.00,West,280,0.0,1.0,90,0.00,,,-99.99,,2013-03-07 05:52:00,